Regional Weather Roundup
Issued by NWS Huntsville, AL

Home | Current Version | Previous Version | Text Only | Print | Product List | Glossary On
Versions: 1 2 3 4 5 6 7 8 9 10 11 12 13 14 15 16 17 18 19 20 21 22 23 24 25 26 27
000
ASUS44 KHUN 061810
RWRHUN

WEATHER ROUNDUP FOR THE TENNESSEE VALLEY
NATIONAL WEATHER SERVICE HUNTSVILLE AL
1200 PM CST TUE DEC 06 2016

ALZ001>004-061900-
NORTHWEST ALABAMA

CITY           SKY/WX    TMP DP  RH WIND       PRES   REMARKS
SHOALS AIRPORT CLOUDY    52  48  86 W15       29.80R
6HR MIN TEMP:  52; 6HR MAX TEMP:  57; 6HR PCP:  0.15;

$$

ALZ005>007-016-061900-
NORTH CENTRAL ALABAMA

CITY           SKY/WX    TMP DP  RH WIND       PRES   REMARKS
DECATUR AP     CLOUDY    55  53  93 W14       29.77R
6HR MIN TEMP:  54; 6HR MAX TEMP:  58; 6HR PCP:  0.33;

HUNTSVILLE AP  CLOUDY    58  53  84 W18       29.76R
6HR MIN TEMP:  56; 6HR MAX TEMP:  60; 6HR PCP:  0.25;

MERIDIANVILLE  CLOUDY    55  52  88 W12G20    29.73R
REDSTONE ARSN  CLOUDY    56  54  94 W8        29.74R
VINEMONT AP    CLOUDY    54  51  89 SW7       29.79R
$$

ALZ008>010-061900-
NORTHEAST ALABAMA

CITY           SKY/WX    TMP DP  RH WIND       PRES   REMARKS
ALBERTVILLE    CLOUDY    55  55 100 W13       29.74R FOG
FORT PAYNE     CLOUDY    57  54  88 SW8       29.71F FOG
SCOTTSBORO AP  CLOUDY    61  59  94 W13G21    29.72F
$$

TNZ076-096-097-061900-
SOUTHEASTERN MIDDLE TENNESSEE

CITY           SKY/WX    TMP DP  RH WIND       PRES   REMARKS
TULLAHOMA      CLOUDY    57  55  94 W12       29.72R
WINCHESTER     CLOUDY    59  55  88 W12       29.72R
$$

...SURROUNDING SITES...

CITY           SKY/WX    TMP DP  RH WIND       PRES   REMARKS
ATLANTA        CLOUDY    55  54  96 CALM      29.75R
ANNISTON       CLOUDY    62  58  86 W13       29.75F
BIRMINGHAM     CLOUDY    56  54  93 W17G26    29.82R
CHATTANOOGA    DRIZZLE   56  53  90 S7        29.71S FOG
CORINTH        CLOUDY    48  45  87 NW13G20   29.84R
DALTON         CLOUDY    54  54 100 S3        29.74R
GADSDEN        CLOUDY    60  57  89 W12       29.76R
GOLDEN TRNGL   CLOUDY    52  45  76 NW12      29.82S
HALEYVILLE     CLOUDY    51  50  96 NW9       29.81R
JACKSON TN     CLOUDY    46  43  89 NW12      29.85R
MEMPHIS        CLOUDY    47  44  90 NW7       29.89R
NASHVILLE      CLOUDY    50  47  89 NW12      29.73R
ROME           CLOUDY    57  54  89 S5        29.74R
SAVANNAH       CLOUDY    48  46  93 NW12      29.82R
TUPELO         CLOUDY    50  45  83 W8        29.87R
TUSCALOOSA     CLOUDY    56  49  77 W10       29.85R
$$

...GULF COAST WEATHER...

CITY           SKY/WX    TMP DP  RH WIND       PRES   REMARKS
GULFPORT       PTSUNNY   63  54  72 NW14      29.90F
PASCAGOULA     PTSUNNY   65  52  62 VRB5      29.89F
MOBILE         PTSUNNY   63  53  70 W8        29.90S
GULF SHORES    CLOUDY    63  56  78 W13G21    29.89F
PENSACOLA      CLOUDY    64  54  69 W9        29.88F
DESTIN         SUNNY     69  57  65 W7G17     29.87F
PANAMA CITY    MOSUNNY   70  60  70 W26       29.85F
APPALACHICOLA  MOSUNNY   74  61  63 NW26G32   29.85F
$$





USA.gov is the U.S. government's official web portal to all federal, state and local government web resources and services.